Regional Weather Roundup
Issued by NWS

Home | Current Version | Previous Version | Graphics & Text | Print | Product List | Glossary Off
Versions: 1 2 3 4 5 6 7 8 9 10 11 12 13 14 15 16 17 18 19 20 21 22 23 24 25 26 27 28 29 30 31 32 33 34 35 36 37 38 39 40 41 42 43 44 45 46 47 48 49 50

000
ASUS43 KDMX 221706
RWRIA

WEATHER ROUNDUP FOR IOWA
NATIONAL WEATHER SERVICE DES MOINES IA
1100 AM CST WED FEB 22 2017

NOTE: "FAIR" INDICATES FEW OR NO CLOUDS BELOW 12,000 FEET WITH NO
SIGNIFICANT WEATHER AND/OR OBSTRUCTIONS TO VISIBILITY.

* - THESE STATIONS ARE NOT NWS STATIONS...THUS NOT UNDER NWS
QUALITY CONTROL.  THEY ALSO DO NOT REPORT WEATHER SUCH
AS PRECIPITATION OR FOG.

IAZ001>003-012>014-020>022-031>034-043>046-221800-
   NORTHWEST IOWA

CITY           SKY/WX    TMP DP  RH WIND       PRES   REMARKS
CARROLL *      SUNNY     59  41  51 W13G21    29.62F
CHEROKEE *     SUNNY     61  40  46 NW12      29.61F
DENISON *      SUNNY     57  39  51 W7        29.61F
LE MARS *      SUNNY     59  43  55 NW9       29.64R
ORANGE CITY *  SUNNY     57  45  62 W9        29.61S
SHELDON *      SUNNY     57  45  62 W7        29.59F
SIOUX CITY     SUNNY     61  39  44 NW12      29.64F
SPENCER        SUNNY     60  41  49 W9        29.59F
STORM LAKE *   SUNNY     57  39  51 NW13      29.61S
$$

IAZ055>058-069>071-079>083-090>094-221800-
   SOUTHWEST IOWA

CITY           SKY/WX    TMP DP  RH WIND       PRES   REMARKS
ATLANTIC *     SUNNY     61  39  44 SW16      29.64S
CLARINDA *     SUNNY     63  37  39 SW15G26     N/A
COUNCIL BLFS * SUNNY     59  36  41 W8G15     29.65S
CRESTON *      SUNNY     64  37  36 SW20      29.65F
HARLAN  *      SUNNY     59  37  44 W13       29.67F
LAMONI         SUNNY     65  39  38 S20G25    29.66F
RED OAK *      SUNNY     61  37  41 W13G20    29.66S
SHENANDOAH *   SUNNY     63  37  39 SW15      29.67S
$$

IAZ047>049-059>061-072>074-084-221800-
   CENTRAL IOWA

CITY           SKY/WX    TMP DP  RH WIND       PRES   REMARKS
AMES           SUNNY     65  43  44 SW14      29.60F
ANKENY *       SUNNY     68  34  28 S16       29.61F
BOONE *        SUNNY     63  39  42 W18G24    29.60S
CHARITON *     SUNNY     66  39  37 S24       29.64F
DES MOINES     MOSUNNY   70  32  24 SW18      29.60F
GRINNELL*      SUNNY     64  39  39 S16       29.64F
KNOXVILLE *    SUNNY     68  36  30 S17G24    29.61F
MARSHALLTOWN   SUNNY     63  38  39 SW16      29.60F
NEWTON *       SUNNY     64  37  36 SW18      29.62F
PELLA *        SUNNY     68  37  32 S13       29.65F
PERRY *          N/A     64  37  37 W16G22    29.63R
$$

IAZ004>006-015-016-023>025-035-036-221800-
   NORTH CENTRAL IOWA

CITY           SKY/WX    TMP DP  RH WIND       PRES   REMARKS
ALGONA *       MOSUNNY   50  43  76 SW10      29.60S
CLARION *      CLOUDY    52  45  76 SW10      29.61F
ESTHERVILLE    MOSUNNY   54  43  66 W8        29.57F
FORT DODGE *   SUNNY     55  41  58 W9        29.62F
MASON CITY     PTSUNNY   52  40  63 SW10      29.61R
FOREST CITY *    N/A     54  39  58 SW7       29.60S
WEBSTER CITY * SUNNY     55  43  62 W12       29.60F
IOWA FALLS *     N/A     60  44  55 W12       29.62F
$$

IAZ007>011-017>019-026>030-037>042-050>054-066-221800-
   NORTHEAST IOWA

CITY           SKY/WX    TMP DP  RH WIND       PRES   REMARKS
CEDAR RAPIDS   SUNNY     65  47  52 S18       29.65F
CHARLES CITY * CLOUDY    50  43  76 SW8G16    29.61F
DECORAH *      CLOUDY    55  39  54 SW9       29.60S
DUBUQUE        SUNNY     62  47  57 SW25      29.66F
MONTICELLO *   SUNNY     63  48  59 S18G26    29.65F
OELWEIN *      MOSUNNY   57  43  58 S15       29.63F
WATERLOO       MOSUNNY   61  38  42 S12       29.61F
$$

IAZ064-065-067-068-078-221800-
   EAST CENTRAL IOWA

CITY           SKY/WX    TMP DP  RH WIND       PRES   REMARKS
DAVENPORT      SUNNY     63  53  70 SW17G24   29.71F
IOWA CITY      SUNNY     67  48  50 S15       29.69F
MUSCATINE *    SUNNY     64  52  63 SW15      29.71F
QUAD CITIES    SUNNY     63  55  75 S16G22    29.71F
$$

IAZ062-063-075>077-085>089-095>099-221800-
   SOUTHEAST IOWA

CITY           SKY/WX    TMP DP  RH WIND       PRES   REMARKS
BURLINGTON     SUNNY     61  56  83 S15       29.74F
FAIRFIELD *    SUNNY     68  45  42 S21       29.69F
KEOKUK *       MOSUNNY   61  55  82 SW9       29.75F
OTTUMWA        SUNNY     69  43  38 S18       29.66F
WASHINGTON *   SUNNY     68  52  56 SW18G24   29.69F
$$

ABBREVIATIONS USED IN REMARKS
   TC - TEMPERATURES IN CELSIUS
  WCI - WIND CHILL INDEX
   HX - HEAT INDEX
  VSB - VISIBILITY
$$




USA.gov is the U.S. government's official web portal to all federal, state and local government web resources and services.